,,PA_Meas_PMT16A,,PR_Meas_QMR101_102,,RH_Meas_QMH101,,SR_Meas_QMS101,,TA_Meas_QMH101,,GenWind,,GenWind,
time,status,PA,status,PR,status,RH,status,SR,status,TA,status,DirAvg,status,SpdAvg,
2013-04-14, 00:00:05,VALID,918.918,VALID,0,VALID,93.5164,VALID,0,VALID,22.0437,VALID,25,VALID,0,
2013-04-14, 00:01:05,VALID,918.915,VALID,0,VALID,93.425,VALID,0,VALID,22.0242,VALID,36,VALID,0,
2013-04-14, 00:02:05,VALID,918.877,VALID,0,VALID,93.4707,VALID,0,VALID,21.9835,VALID,43,VALID,0,
2013-04-14, 00:03:05,VALID,918.883,VALID,0,VALID,93.6232,VALID,0,VALID,21.9835,VALID,32,VALID,0,
2013-04-14, 00:04:05,VALID,918.876,VALID,0,VALID,93.6994,VALID,0,VALID,21.9851,VALID,13,VALID,0,
2013-04-14, 00:05:05,VALID,918.87,VALID,0,VALID,93.7299,VALID,0,VALID,21.9851,VALID,13,VALID,0,
2013-04-14, 00:06:05,VALID,918.89,VALID,0,VALID,93.7451,VALID,0,VALID,21.9851,VALID,47,VALID,0,
2013-04-14, 00:07:05,VALID,918.889,VALID,0,VALID,93.7528,VALID,0,VALID,21.9835,VALID,35,VALID,0,
2013-04-14, 00:08:05,VALID,918.887,VALID,0,VALID,93.7604,VALID,0,VALID,22.003,VALID,11,VALID,0,
2013-04-14, 00:09:05,VALID,918.856,VALID,0,VALID,93.7223,VALID,0,VALID,22.003,VALID,24,VALID,0,
2013-04-14, 00:10:05,VALID,918.86,VALID,0,VALID,93.7223,VALID,0,VALID,22.0242,VALID,28,VALID,0,
2013-04-14, 00:11:05,VALID,918.878,VALID,0,VALID,93.646,VALID,0,VALID,22.0047,VALID,346,VALID,0,
2013-04-14, 00:12:05,VALID,918.913,VALID,0,VALID,93.7375,VALID,0,VALID,21.9835,VALID,11,VALID,0,
2013-04-14, 00:13:05,VALID,918.917,VALID,0,VALID,93.7985,VALID,0,VALID,21.964,VALID,10,VALID,0,
2013-04-14, 00:14:05,VALID,918.946,VALID,0,VALID,93.768,VALID,0,VALID,21.964,VALID,20,VALID,0,
2013-04-14, 00:15:05,VALID,918.973,VALID,0,VALID,93.7756,VALID,0,VALID,21.9444,VALID,14,VALID,0,
2013-04-14, 00:16:05,VALID,918.986,VALID,0,VALID,93.7604,VALID,0,VALID,21.9656,VALID,17,VALID,0,
2013-04-14, 00:17:05,VALID,918.997,VALID,0,VALID,93.8443,VALID,0,VALID,21.9266,VALID,356,VALID,0,
2013-04-14, 00:18:05,VALID,918.992,VALID,0,VALID,93.9586,VALID,0,VALID,21.8859,VALID,3,VALID,0,
2013-04-14, 00:19:05,VALID,918.982,VALID,0,VALID,94.0348,VALID,0,VALID,21.8469,VALID,2,VALID,0,
2013-04-14, 00:20:05,VALID,918.955,VALID,0,VALID,94.1339,VALID,0,VALID,21.829,VALID,4,VALID,0,
2013-04-14, 00:21:05,VALID,918.937,VALID,0,VALID,94.2178,VALID,0,VALID,21.7883,VALID,348,VALID,0,
2013-04-14, 00:22:05,VALID,918.932,VALID,0,VALID,94.2864,VALID,0,VALID,21.79,VALID,7,VALID,0,
2013-04-14, 00:23:05,VALID,918.92,VALID,0,VALID,94.3398,VALID,0,VALID,21.79,VALID,354,VALID,0,
2013-04-14, 00:24:05,VALID,918.918,VALID,0,VALID,94.355,VALID,0,VALID,21.7705,VALID,351,VALID,0,
2013-04-14, 00:25:05,VALID,918.914,VALID,0,VALID,94.4008,VALID,0,VALID,21.7298,VALID,11,VALID,0,
2013-04-14, 00:26:05,VALID,918.868,VALID,0,VALID,94.4236,VALID,0,VALID,21.7493,VALID,346,VALID,0,
2013-04-14, 00:27:05,VALID,918.857,VALID,0,VALID,94.3931,VALID,0,VALID,21.7493,VALID,20,VALID,0,
2013-04-14, 00:28:05,VALID,918.844,VALID,0,VALID,94.3779,VALID,0,VALID,21.7493,VALID,9,VALID,0,
2013-04-14, 00:29:05,VALID,918.782,VALID,0,VALID,94.3321,VALID,0,VALID,21.7493,VALID,1,VALID,0,
2013-04-14, 00:30:05,VALID,918.745,VALID,0,VALID,94.3779,VALID,0,VALID,21.7493,VALID,349,VALID,0,
2013-04-14, 00:31:05,VALID,918.75,VALID,0,VALID,94.3779,VALID,0,VALID,21.751,VALID,9,VALID,0,
2013-04-14, 00:32:05,VALID,918.741,VALID,0,VALID,94.4313,VALID,0,VALID,21.7298,VALID,19,VALID,0,
2013-04-14, 00:33:05,VALID,918.739,VALID,0,VALID,94.3169,VALID,0,VALID,21.7298,VALID,342,VALID,0,
2013-04-14, 00:34:05,VALID,918.695,VALID,0,VALID,94.3017,VALID,0,VALID,21.7103,VALID,359,VALID,0,
2013-04-14, 00:35:05,VALID,918.701,VALID,0,VALID,94.3245,VALID,0,VALID,21.7298,VALID,360,VALID,0,
2013-04-14, 00:36:05,VALID,918.65,VALID,0,VALID,94.2254,VALID,0,VALID,21.7705,VALID,4,VALID,0,
2013-04-14, 00:37:05,VALID,918.626,VALID,0,VALID,94.1721,VALID,0,VALID,21.7493,VALID,14,VALID,0,
2013-04-14, 00:38:05,VALID,918.603,VALID,0,VALID,94.1797,VALID,0,VALID,21.7493,VALID,11,VALID,0,
2013-04-14, 00:39:05,VALID,918.554,VALID,0,VALID,94.1568,VALID,0,VALID,21.7493,VALID,11,VALID,0,
2013-04-14, 00:40:05,VALID,918.516,VALID,0,VALID,94.2102,VALID,0,VALID,21.7688,VALID,11,VALID,0,
2013-04-14, 00:41:05,VALID,918.489,VALID,0,VALID,94.1492,VALID,0,VALID,21.79,VALID,11,VALID,0,
2013-04-14, 00:42:05,VALID,918.452,VALID,0,VALID,94.1339,VALID,0,VALID,21.79,VALID,11,VALID,0,
2013-04-14, 00:43:05,VALID,918.393,VALID,0,VALID,94.1416,VALID,0,VALID,21.79,VALID,11,VALID,0,
2013-04-14, 00:44:05,VALID,918.404,VALID,0,VALID,94.1644,VALID,0,VALID,21.7883,VALID,11,VALID,0,
2013-04-14, 00:45:05,VALID,918.362,VALID,0,VALID,94.1644,VALID,0,VALID,21.7883,VALID,11,VALID,0,
2013-04-14, 00:46:05,VALID,918.366,VALID,0,VALID,94.1111,VALID,0,VALID,21.7883,VALID,11,VALID,0,
2013-04-14, 00:47:05,VALID,918.388,VALID,0,VALID,94.0882,VALID,0,VALID,21.7688,VALID,266,VALID,0,
2013-04-14, 00:48:05,VALID,918.378,VALID,0,VALID,94.1644,VALID,0,VALID,21.7705,VALID,249,VALID,0,
2013-04-14, 00:49:05,VALID,918.352,VALID,0,VALID,94.2635,VALID,0,VALID,21.751,VALID,249,VALID,0,
2013-04-14, 00:50:05,VALID,918.342,VALID,0,VALID,94.294,VALID,0,VALID,21.6908,VALID,249,VALID,0,
2013-04-14, 00:51:05,VALID,918.344,VALID,0,VALID,94.3703,VALID,0,VALID,21.6713,VALID,249,VALID,0,
2013-04-14, 00:52:05,VALID,918.323,VALID,0,VALID,94.3626,VALID,0,VALID,21.6518,VALID,198,VALID,0,
2013-04-14, 00:53:05,VALID,918.311,VALID,0,VALID,94.4236,VALID,0,VALID,21.6323,VALID,197,VALID,0,
2013-04-14, 00:54:05,VALID,918.298,VALID,0,VALID,94.3779,VALID,0,VALID,21.6746,VALID,247,VALID,0,
2013-04-14, 00:55:04,VALID,918.318,VALID,0,VALID,94.3474,VALID,0,VALID,21.6534,VALID,246,VALID,0,
2013-04-14, 00:56:04,VALID,918.325,VALID,0,VALID,94.3779,VALID,0,VALID,21.6144,VALID,245,VALID,0,
2013-04-14, 00:57:04,VALID,918.299,VALID,0,VALID,94.4313,VALID,0,VALID,21.5932,VALID,256,VALID,0,
2013-04-14, 00:58:04,VALID,918.27,VALID,0,VALID,94.4313,VALID,0.107441,VALID,21.6128,VALID,249,VALID,0,
2013-04-14, 00:59:04,VALID,918.306,VALID,0,VALID,94.4236,VALID,0,VALID,21.6128,VALID,249,VALID,0,
2013-04-14, 01:00:04,VALID,918.273,VALID,0,VALID,94.4465,VALID,0.107441,VALID,21.6323,VALID,254,VALID,0,
2013-04-14, 01:01:04,VALID,918.256,VALID,0,VALID,94.4389,VALID,0,VALID,21.6534,VALID,254,VALID,0,
2013-04-14, 01:02:04,VALID,918.289,VALID,0,VALID,94.4617,VALID,0,VALID,21.6323,VALID,254,VALID,0,
2013-04-14, 01:03:04,VALID,918.279,VALID,0,VALID,94.477,VALID,0,VALID,21.6323,VALID,254,VALID,0,
2013-04-14, 01:04:04,VALID,918.264,VALID,0,VALID,94.3474,VALID,0,VALID,21.6729,VALID,254,VALID,0,
2013-04-14, 01:05:04,VALID,918.26,VALID,0,VALID,94.3626,VALID,0,VALID,21.6729,VALID,254,VALID,0,
2013-04-14, 01:06:04,VALID,918.251,VALID,0,VALID,94.3398,VALID,0,VALID,21.6713,VALID,254,VALID,0,
2013-04-14, 01:07:04,VALID,918.247,VALID,0,VALID,94.3626,VALID,0,VALID,21.6908,VALID,254,VALID,0,
2013-04-14, 01:08:04,VALID,918.258,VALID,0,VALID,94.2483,VALID,0,VALID,21.7103,VALID,254,VALID,0,
2013-04-14, 01:09:04,VALID,918.269,VALID,0,VALID,94.1797,VALID,0,VALID,21.7315,VALID,254,VALID,0,
2013-04-14, 01:10:04,VALID,918.237,VALID,0,VALID,94.1568,VALID,0,VALID,21.7298,VALID,254,VALID,0,
2013-04-14, 01:11:04,VALID,918.249,VALID,0,VALID,94.1111,VALID,0,VALID,21.751,VALID,325,VALID,0,
2013-04-14, 01:12:04,VALID,918.218,VALID,0,VALID,93.9967,VALID,0,VALID,21.751,VALID,325,VALID,0,
2013-04-14, 01:13:04,VALID,918.223,VALID,0,VALID,93.9815,VALID,0,VALID,21.7315,VALID,325,VALID,0,
2013-04-14, 01:14:04,VALID,918.245,VALID,0,VALID,93.9434,VALID,0,VALID,21.751,VALID,325,VALID,0,
2013-04-14, 01:15:04,VALID,918.212,VALID,0,VALID,93.8061,VALID,0,VALID,21.7103,VALID,325,VALID,0,
2013-04-14, 01:16:04,VALID,918.194,VALID,0,VALID,93.6384,VALID,0,VALID,21.712,VALID,325,VALID,0,
2013-04-14, 01:17:04,VALID,918.157,VALID,0,VALID,93.5088,VALID,0,VALID,21.6908,VALID,325,VALID,0,
2013-04-14, 01:18:04,VALID,918.136,VALID,0,VALID,93.4021,VALID,0,VALID,21.7103,VALID,325,VALID,0,
2013-04-14, 01:19:04,VALID,918.092,VALID,0,VALID,93.2191,VALID,0,VALID,21.6908,VALID,325,VALID,0,
2013-04-14, 01:20:04,VALID,918.072,VALID,0,VALID,93.181,VALID,0,VALID,21.6924,VALID,325,VALID,0,
2013-04-14, 01:21:04,VALID,918.043,VALID,0,VALID,93.2039,VALID,0,VALID,21.6924,VALID,325,VALID,0,
2013-04-14, 01:22:04,VALID,917.998,VALID,0,VALID,93.2191,VALID,0,VALID,21.6713,VALID,324,VALID,0,
2013-04-14, 01:23:04,VALID,918.005,VALID,0,VALID,93.3182,VALID,0,VALID,21.6729,VALID,315,VALID,0,
2013-04-14, 01:24:04,VALID,917.973,VALID,0,VALID,93.4021,VALID,0,VALID,21.6518,VALID,315,VALID,0,
2013-04-14, 01:25:04,VALID,917.917,VALID,0,VALID,93.4478,VALID,0,VALID,21.6518,VALID,315,VALID,0,
2013-04-14, 01:26:04,VALID,917.862,VALID,0,VALID,93.4173,VALID,0,VALID,21.6534,VALID,315,VALID,0,
2013-04-14, 01:27:04,VALID,917.869,VALID,0,VALID,93.1658,VALID,0,VALID,21.6128,VALID,315,VALID,0,
2013-04-14, 01:28:04,VALID,917.819,VALID,0,VALID,93.1276,VALID,0,VALID,21.6339,VALID,315,VALID,0,
2013-04-14, 01:29:04,VALID,917.762,VALID,0,VALID,93.1048,VALID,0,VALID,21.6339,VALID,316,VALID,0,
2013-04-14, 01:30:04,VALID,917.765,VALID,0,VALID,93.1734,VALID,0,VALID,21.5949,VALID,317,VALID,0,
2013-04-14, 01:31:04,VALID,917.76,VALID,0,VALID,93.2039,VALID,0,VALID,21.5542,VALID,317,VALID,0,
2013-04-14, 01:32:04,VALID,917.814,VALID,0,VALID,93.2877,VALID,0,VALID,21.5363,VALID,317,VALID,0,
2013-04-14, 01:33:04,VALID,917.788,VALID,0,VALID,93.3411,VALID,0,VALID,21.4762,VALID,317,VALID,0,
2013-04-14, 01:34:04,VALID,917.759,VALID,0,VALID,93.4326,VALID,0,VALID,21.4388,VALID,317,VALID,0,
2013-04-14, 01:35:04,VALID,917.732,VALID,0,VALID,93.5774,VALID,0,VALID,21.4193,VALID,317,VALID,0,
2013-04-14, 01:36:04,VALID,917.765,VALID,0,VALID,93.646,VALID,0,VALID,21.3803,VALID,324,VALID,0,
2013-04-14, 01:37:04,VALID,917.811,VALID,0,VALID,93.7223,VALID,0,VALID,21.3201,VALID,325,VALID,0,
2013-04-14, 01:38:04,VALID,917.832,VALID,0,VALID,93.829,VALID,0,VALID,21.3217,VALID,324,VALID,0,
2013-04-14, 01:39:04,VALID,917.859,VALID,0,VALID,94.0272,VALID,0,VALID,21.3022,VALID,324,VALID,0,
2013-04-14, 01:40:04,VALID,917.862,VALID,0,VALID,94.1263,VALID,0,VALID,21.3022,VALID,325,VALID,0,
2013-04-14, 01:41:04,VALID,917.871,VALID,0,VALID,94.2559,VALID,0,VALID,21.3022,VALID,324,VALID,0,
2013-04-14, 01:42:04,VALID,917.905,VALID,0,VALID,94.4846,VALID,0,VALID,21.3217,VALID,325,VALID,0,
2013-04-14, 01:43:04,VALID,917.885,VALID,0,VALID,94.6218,VALID,0,VALID,21.3412,VALID,325,VALID,0,
2013-04-14, 01:44:04,VALID,917.879,VALID,0,VALID,94.6981,VALID,0,VALID,21.3201,VALID,324,VALID,0,
2013-04-14, 01:45:04,VALID,917.861,VALID,0,VALID,94.8277,VALID,0,VALID,21.3608,VALID,324,VALID,0,
2013-04-14, 01:46:04,VALID,917.819,VALID,0,VALID,94.8277,VALID,0,VALID,21.3998,VALID,324,VALID,0,
2013-04-14, 01:47:04,VALID,917.826,VALID,0,VALID,94.8124,VALID,0,VALID,21.3998,VALID,325,VALID,0,
2013-04-14, 01:48:04,VALID,917.826,VALID,0,VALID,94.6981,VALID,0,VALID,21.3803,VALID,324,VALID,0,
2013-04-14, 01:49:04,VALID,917.823,VALID,0,VALID,94.7591,VALID,0,VALID,21.3803,VALID,324,VALID,0,
2013-04-14, 01:50:04,VALID,917.826,VALID,0,VALID,94.7514,VALID,0,VALID,21.4404,VALID,324,VALID,0,
2013-04-14, 01:51:04,VALID,917.83,VALID,0,VALID,94.6905,VALID,0,VALID,21.4193,VALID,324,VALID,0,
2013-04-14, 01:52:04,VALID,917.784,VALID,0,VALID,94.6828,VALID,0,VALID,21.4193,VALID,324,VALID,0,
2013-04-14, 01:53:04,VALID,917.764,VALID,0,VALID,94.6752,VALID,0,VALID,21.4193,VALID,324,VALID,0,
2013-04-14, 01:54:04,VALID,917.74,VALID,0,VALID,94.5685,VALID,0,VALID,21.4193,VALID,324,VALID,0,
2013-04-14, 01:55:04,VALID,917.694,VALID,0,VALID,94.5304,VALID,0,VALID,21.3998,VALID,324,VALID,0,
2013-04-14, 01:56:04,VALID,917.681,VALID,0,VALID,94.4465,VALID,0,VALID,21.3998,VALID,324,VALID,0,
2013-04-14, 01:57:04,VALID,917.67,VALID,0,VALID,94.3398,VALID,0,VALID,21.3608,VALID,324,VALID,0,
2013-04-14, 01:58:04,VALID,917.65,VALID,0,VALID,94.2178,VALID,0,VALID,21.3412,VALID,324,VALID,0,
2013-04-14, 01:59:04,VALID,917.68,VALID,0,VALID,94.0882,VALID,0,VALID,21.3022,VALID,324,VALID,0,
2013-04-14, 02:00:04,VALID,917.646,VALID,0,VALID,94.1644,VALID,0,VALID,21.2827,VALID,324,VALID,0,
2013-04-14, 02:01:04,VALID,917.646,VALID,0,VALID,94.2026,VALID,0,VALID,21.2632,VALID,324,VALID,0,
2013-04-14, 02:02:04,VALID,917.635,VALID,0,VALID,94.1873,VALID,0,VALID,21.2437,VALID,324,VALID,0,
2013-04-14, 02:03:04,VALID,917.653,VALID,0,VALID,94.2102,VALID,0,VALID,21.1852,VALID,324,VALID,0,
2013-04-14, 02:04:04,VALID,917.643,VALID,0,VALID,94.3626,VALID,0,VALID,21.164,VALID,325,VALID,0,
2013-04-14, 02:05:04,VALID,917.622,VALID,0,VALID,94.4846,VALID,0,VALID,21.1461,VALID,325,VALID,0,
2013-04-14, 02:06:04,VALID,917.556,VALID,0,VALID,94.6371,VALID,0,VALID,21.1461,VALID,324,VALID,0,
2013-04-14, 02:07:04,VALID,917.565,VALID,0,VALID,94.7819,VALID,0,VALID,21.1461,VALID,324,VALID,0,
2013-04-14, 02:08:04,VALID,917.52,VALID,0,VALID,95.0411,VALID,0,VALID,21.1657,VALID,324,VALID,0,
2013-04-14, 02:09:04,VALID,917.544,VALID,0,VALID,95.1174,VALID,0,VALID,21.2047,VALID,324,VALID,0,
2013-04-14, 02:10:04,VALID,917.489,VALID,0,VALID,95.0945,VALID,0,VALID,21.2063,VALID,325,VALID,0,
2013-04-14, 02:11:04,VALID,917.485,VALID,0,VALID,95.125,VALID,0,VALID,21.1852,VALID,324,VALID,0,
2013-04-14, 02:12:04,VALID,917.488,VALID,0,VALID,95.186,VALID,0,VALID,21.1852,VALID,324,VALID,0,
2013-04-14, 02:13:04,VALID,917.506,VALID,0,VALID,95.2088,VALID,0,VALID,21.1852,VALID,323,VALID,0,
2013-04-14, 02:14:04,VALID,917.457,VALID,0,VALID,95.2088,VALID,0,VALID,21.2047,VALID,323,VALID,0,
2013-04-14, 02:15:04,VALID,917.397,VALID,0,VALID,95.2317,VALID,0,VALID,21.1852,VALID,323,VALID,0,
2013-04-14, 02:16:04,VALID,917.371,VALID,0,VALID,95.2241,VALID,0,VALID,21.2047,VALID,323,VALID,0,
2013-04-14, 02:17:04,VALID,917.393,VALID,0,VALID,95.2622,VALID,0,VALID,21.2047,VALID,323,VALID,0,
2013-04-14, 02:18:04,VALID,917.406,VALID,0,VALID,95.3003,VALID,0,VALID,21.2047,VALID,323,VALID,0,
2013-04-14, 02:19:04,VALID,917.385,VALID,0,VALID,95.3308,VALID,0,VALID,21.2242,VALID,323,VALID,0,
2013-04-14, 02:20:04,VALID,917.379,VALID,0,VALID,95.2775,VALID,0,VALID,21.2242,VALID,323,VALID,0,
2013-04-14, 02:21:04,VALID,917.375,VALID,0,VALID,95.1707,VALID,0,VALID,21.2047,VALID,323,VALID,0,
2013-04-14, 02:22:04,VALID,917.36,VALID,0,VALID,95.1326,VALID,0,VALID,21.1852,VALID,322,VALID,0,
2013-04-14, 02:23:04,VALID,917.339,VALID,0,VALID,95.1936,VALID,0,VALID,21.2047,VALID,323,VALID,0,
2013-04-14, 02:24:04,VALID,917.31,VALID,0,VALID,95.2927,VALID,0,VALID,21.2242,VALID,323,VALID,0,
2013-04-14, 02:25:04,VALID,917.285,VALID,0,VALID,95.3079,VALID,0,VALID,21.2437,VALID,322,VALID,0,
2013-04-14, 02:26:04,VALID,917.309,VALID,0,VALID,95.3079,VALID,0,VALID,21.2437,VALID,323,VALID,0,
2013-04-14, 02:27:04,VALID,917.314,VALID,0,VALID,95.2927,VALID,0,VALID,21.2226,VALID,323,VALID,0,
2013-04-14, 02:28:04,VALID,917.313,VALID,0,VALID,95.2622,VALID,0,VALID,21.2242,VALID,323,VALID,0,
2013-04-14, 02:29:04,VALID,917.286,VALID,0,VALID,95.2012,VALID,0,VALID,21.2047,VALID,323,VALID,0,
2013-04-14, 02:30:04,VALID,917.264,VALID,0,VALID,95.2851,VALID,0,VALID,21.1836,VALID,323,VALID,0,
2013-04-14, 02:31:04,VALID,917.252,VALID,0,VALID,95.3766,VALID,0,VALID,21.1836,VALID,323,VALID,0,
2013-04-14, 02:32:04,VALID,917.214,VALID,0,VALID,95.3613,VALID,0.107441,VALID,21.2047,VALID,323,VALID,0,
2013-04-14, 02:33:04,VALID,917.213,VALID,0,VALID,95.3461,VALID,0,VALID,21.2047,VALID,323,VALID,0,
2013-04-14, 02:34:04,VALID,917.182,VALID,0,VALID,95.3766,VALID,0.107441,VALID,21.164,VALID,323,VALID,0,
2013-04-14, 02:35:04,VALID,917.17,VALID,0,VALID,95.3689,VALID,0,VALID,21.1445,VALID,323,VALID,0,
2013-04-14, 02:36:04,VALID,917.169,VALID,0,VALID,95.4757,VALID,0.107441,VALID,21.1445,VALID,323,VALID,0,
2013-04-14, 02:37:04,VALID,917.172,VALID,0,VALID,95.5138,VALID,0.107441,VALID,21.1445,VALID,323,VALID,0,
2013-04-14, 02:38:04,VALID,917.135,VALID,0,VALID,95.5671,VALID,0,VALID,21.164,VALID,323,VALID,0,
2013-04-14, 02:39:04,VALID,917.076,VALID,0,VALID,95.5671,VALID,0,VALID,21.1836,VALID,323,VALID,0,
2013-04-14, 02:40:04,VALID,917.099,VALID,0,VALID,95.5748,VALID,0,VALID,21.2047,VALID,323,VALID,0,
2013-04-14, 02:41:04,VALID,917.042,VALID,0,VALID,95.59,VALID,0,VALID,21.1836,VALID,323,VALID,0,
2013-04-14, 02:42:04,VALID,917.013,VALID,0,VALID,95.59,VALID,0.107441,VALID,21.2031,VALID,323,VALID,0,
2013-04-14, 02:43:04,VALID,916.977,VALID,0,VALID,95.6129,VALID,0.107441,VALID,21.2242,VALID,323,VALID,0,
2013-04-14, 02:44:04,VALID,916.947,VALID,0,VALID,95.6281,VALID,0,VALID,21.2242,VALID,323,VALID,0,
2013-04-14, 02:45:04,VALID,916.971,VALID,0,VALID,95.6434,VALID,0,VALID,21.2031,VALID,296,VALID,0,
2013-04-14, 02:46:04,VALID,916.966,VALID,0,VALID,95.6205,VALID,0,VALID,21.1836,VALID,292,VALID,0,
2013-04-14, 02:47:04,VALID,916.938,VALID,0,VALID,95.6357,VALID,0.107441,VALID,21.1852,VALID,292,VALID,0,
2013-04-14, 02:48:04,VALID,916.956,VALID,0,VALID,95.6586,VALID,0,VALID,21.164,VALID,292,VALID,0,
2013-04-14, 02:49:04,VALID,916.909,VALID,0,VALID,95.6815,VALID,0.107441,VALID,21.1445,VALID,292,VALID,0,
2013-04-14, 02:50:04,VALID,916.903,VALID,0,VALID,95.6662,VALID,0,VALID,21.1445,VALID,292,VALID,0,
2013-04-14, 02:51:04,VALID,916.866,VALID,0,VALID,95.6967,VALID,0.107441,VALID,21.125,VALID,292,VALID,0,
2013-04-14, 02:52:04,VALID,916.883,VALID,0,VALID,95.7349,VALID,0,VALID,21.1461,VALID,292,VALID,0,
2013-04-14, 02:53:04,VALID,916.836,VALID,0,VALID,95.7349,VALID,0.107441,VALID,21.1461,VALID,292,VALID,0,
2013-04-14, 02:54:04,VALID,916.804,VALID,0,VALID,95.712,VALID,0.107441,VALID,21.125,VALID,292,VALID,0,
2013-04-14, 02:55:04,VALID,916.812,VALID,0,VALID,95.6662,VALID,0.107441,VALID,21.086,VALID,293,VALID,0,
2013-04-14, 02:56:04,VALID,916.832,VALID,0,VALID,95.468,VALID,0,VALID,21.008,VALID,323,VALID,0,
2013-04-14, 02:57:04,VALID,916.836,VALID,0,VALID,95.5595,VALID,0,VALID,20.9706,VALID,323,VALID,0,
2013-04-14, 02:58:04,VALID,916.853,VALID,0,VALID,95.59,VALID,0,VALID,20.9316,VALID,323,VALID,0,
2013-04-14, 02:59:04,VALID,916.838,VALID,0,VALID,95.5519,VALID,0,VALID,20.873,VALID,324,VALID,0,
2013-04-14, 03:00:04,VALID,916.846,VALID,0,VALID,95.5595,VALID,0,VALID,20.8746,VALID,324,VALID,0,
2013-04-14, 03:01:04,VALID,916.87,VALID,0,VALID,95.6053,VALID,0,VALID,20.8145,VALID,324,VALID,0,
2013-04-14, 03:02:04,VALID,916.887,VALID,0,VALID,95.6053,VALID,0,VALID,20.7966,VALID,324,VALID,0,
2013-04-14, 03:03:04,VALID,916.895,VALID,0,VALID,95.5976,VALID,0,VALID,20.7365,VALID,324,VALID,0,
2013-04-14, 03:04:04,VALID,916.891,VALID,0,VALID,95.6967,VALID,0,VALID,20.7365,VALID,324,VALID,0,
2013-04-14, 03:05:04,VALID,916.913,VALID,0,VALID,95.7501,VALID,0,VALID,20.7365,VALID,324,VALID,0,
2013-04-14, 03:06:04,VALID,916.928,VALID,0,VALID,95.7654,VALID,0,VALID,20.7576,VALID,324,VALID,0,
2013-04-14, 03:07:04,VALID,916.901,VALID,0,VALID,95.7425,VALID,0,VALID,20.717,VALID,324,VALID,0,
2013-04-14, 03:08:04,VALID,916.912,VALID,0,VALID,95.7425,VALID,0,VALID,20.7381,VALID,324,VALID,0,
2013-04-14, 03:09:04,VALID,916.929,VALID,0,VALID,95.8187,VALID,0,VALID,20.7365,VALID,324,VALID,0,
2013-04-14, 03:10:04,VALID,916.898,VALID,0,VALID,95.8492,VALID,0,VALID,20.7365,VALID,324,VALID,0,
2013-04-14, 03:11:04,VALID,916.895,VALID,0,VALID,95.8873,VALID,0,VALID,20.7365,VALID,324,VALID,0,
2013-04-14, 03:12:04,VALID,916.93,VALID,0,VALID,95.8568,VALID,0,VALID,20.7365,VALID,324,VALID,0,
2013-04-14, 03:13:04,VALID,916.953,VALID,0,VALID,95.8263,VALID,0,VALID,20.717,VALID,324,VALID,0,
2013-04-14, 03:14:04,VALID,916.945,VALID,0,VALID,95.8416,VALID,0,VALID,20.7154,VALID,324,VALID,0,
2013-04-14, 03:15:04,VALID,916.972,VALID,0,VALID,95.7958,VALID,0,VALID,20.7154,VALID,324,VALID,0,
2013-04-14, 03:16:04,VALID,917.001,VALID,0,VALID,95.7806,VALID,0,VALID,20.7154,VALID,324,VALID,0,
2013-04-14, 03:17:04,VALID,917.026,VALID,0,VALID,95.8416,VALID,0,VALID,20.756,VALID,324,VALID,0,
2013-04-14, 03:18:04,VALID,917.068,VALID,0,VALID,95.834,VALID,0,VALID,20.756,VALID,324,VALID,0,
2013-04-14, 03:19:04,VALID,917.114,VALID,0,VALID,95.8416,VALID,0,VALID,20.7544,VALID,324,VALID,0,
2013-04-14, 03:20:04,VALID,917.139,VALID,0,VALID,95.8263,VALID,0,VALID,20.8145,VALID,324,VALID,0,
2013-04-14, 03:21:04,VALID,917.151,VALID,0,VALID,95.834,VALID,0,VALID,20.8129,VALID,324,VALID,0,
2013-04-14, 03:22:04,VALID,917.141,VALID,0,VALID,95.8035,VALID,0,VALID,20.8324,VALID,324,VALID,0,
2013-04-14, 03:23:04,VALID,917.143,VALID,0,VALID,95.7577,VALID,0,VALID,20.834,VALID,324,VALID,0,
2013-04-14, 03:24:04,VALID,917.134,VALID,0,VALID,95.7654,VALID,0,VALID,20.8519,VALID,324,VALID,0,
2013-04-14, 03:25:04,VALID,917.116,VALID,0,VALID,95.7501,VALID,0,VALID,20.912,VALID,324,VALID,0,
2013-04-14, 03:26:04,VALID,917.112,VALID,0,VALID,95.712,VALID,0,VALID,20.9105,VALID,324,VALID,0,
2013-04-14, 03:27:04,VALID,917.133,VALID,0,VALID,95.6205,VALID,0,VALID,20.9316,VALID,324,VALID,0,
2013-04-14, 03:28:04,VALID,917.119,VALID,0,VALID,95.4375,VALID,0,VALID,20.9331,VALID,324,VALID,0,
2013-04-14, 03:29:04,VALID,917.142,VALID,0,VALID,95.3689,VALID,0,VALID,20.9136,VALID,324,VALID,0,
2013-04-14, 03:30:04,VALID,917.15,VALID,0,VALID,95.3689,VALID,0,VALID,20.873,VALID,324,VALID,0,
2013-04-14, 03:31:04,VALID,917.098,VALID,0,VALID,95.3384,VALID,0,VALID,20.8746,VALID,324,VALID,0,
2013-04-14, 03:32:04,VALID,917.119,VALID,0,VALID,95.2241,VALID,0,VALID,20.8551,VALID,324,VALID,0,
2013-04-14, 03:33:04,VALID,917.139,VALID,0,VALID,95.1402,VALID,0,VALID,20.8551,VALID,324,VALID,0,
2013-04-14, 03:34:04,VALID,917.153,VALID,0,VALID,94.9954,VALID,0,VALID,20.8551,VALID,324,VALID,0,
2013-04-14, 03:35:04,VALID,917.17,VALID,0,VALID,94.9649,VALID,0,VALID,20.8551,VALID,324,VALID,0,
2013-04-14, 03:36:04,VALID,917.153,VALID,0,VALID,95.0488,VALID,0,VALID,20.8551,VALID,324,VALID,0,
2013-04-14, 03:37:04,VALID,917.159,VALID,0,VALID,95.0792,VALID,0,VALID,20.8746,VALID,324,VALID,0,
2013-04-14, 03:38:04,VALID,917.156,VALID,0,VALID,95.0106,VALID,0,VALID,20.8535,VALID,324,VALID,0,
2013-04-14, 03:39:04,VALID,917.192,VALID,0,VALID,95.064,VALID,0,VALID,20.8535,VALID,324,VALID,0,
2013-04-14, 03:40:04,VALID,917.206,VALID,0,VALID,95.0716,VALID,0,VALID,20.8535,VALID,324,VALID,0,
2013-04-14, 03:41:04,VALID,917.21,VALID,0,VALID,95.0869,VALID,0,VALID,20.8941,VALID,324,VALID,0,
2013-04-14, 03:42:04,VALID,917.228,VALID,0,VALID,95.1174,VALID,0,VALID,20.9136,VALID,324,VALID,0,
2013-04-14, 03:43:04,VALID,917.242,VALID,0,VALID,95.2241,VALID,0,VALID,20.9136,VALID,324,VALID,0,
2013-04-14, 03:44:04,VALID,917.245,VALID,0,VALID,95.3232,VALID,0,VALID,20.8925,VALID,324,VALID,0,
2013-04-14, 03:45:04,VALID,917.283,VALID,0,VALID,95.4071,VALID,0,VALID,20.912,VALID,324,VALID,0,
2013-04-14, 03:46:04,VALID,917.289,VALID,0,VALID,95.4147,VALID,0,VALID,20.9331,VALID,324,VALID,0,
2013-04-14, 03:47:04,VALID,917.286,VALID,0,VALID,95.4375,VALID,0,VALID,20.9331,VALID,324,VALID,0,
2013-04-14, 03:48:04,VALID,917.244,VALID,0,VALID,95.4223,VALID,0,VALID,20.9331,VALID,324,VALID,0,
2013-04-14, 03:49:04,VALID,917.216,VALID,0,VALID,95.4528,VALID,0,VALID,20.8925,VALID,324,VALID,0,
2013-04-14, 03:50:04,VALID,917.228,VALID,0,VALID,95.468,VALID,0,VALID,20.9136,VALID,324,VALID,0,
2013-04-14, 03:51:04,VALID,917.211,VALID,0,VALID,95.5519,VALID,0,VALID,20.8941,VALID,324,VALID,0,
2013-04-14, 03:52:04,VALID,917.211,VALID,0,VALID,95.59,VALID,0,VALID,20.8925,VALID,324,VALID,0,
2013-04-14, 03:53:04,VALID,917.181,VALID,0,VALID,95.5976,VALID,0,VALID,20.8941,VALID,324,VALID,0,
2013-04-14, 03:54:04,VALID,917.178,VALID,0,VALID,95.5824,VALID,0,VALID,20.8941,VALID,324,VALID,0,
2013-04-14, 03:55:04,VALID,917.159,VALID,0,VALID,95.6053,VALID,0,VALID,20.8925,VALID,324,VALID,0,
2013-04-14, 03:56:04,VALID,917.132,VALID,0,VALID,95.6891,VALID,0,VALID,20.9136,VALID,324,VALID,0,
2013-04-14, 03:57:04,VALID,917.105,VALID,0,VALID,95.6815,VALID,0,VALID,20.9105,VALID,324,VALID,0,
2013-04-14, 03:58:04,VALID,917.089,VALID,0,VALID,95.6434,VALID,0.107441,VALID,20.93,VALID,324,VALID,0,
2013-04-14, 03:59:04,VALID,917.072,VALID,0,VALID,95.651,VALID,0,VALID,20.9105,VALID,324,VALID,0,